Flag for Hungary Weather past 2 weeks in Sopron, Hungary

Now
75 °F

Sunny.


Feels Like: 76 °F
Forecast: 62 / 89 °F
Wind: 1 mph from East

Location: Eisenstadt

Current Time: Aug 28, 2015 at 11:59:26 AM

Latest Report: Aug 28, 2015 at 11:00 AM


Visibility: 5 mi

Pressure: 30.04 "Hg

Humidity: 74%

Dew point: 66 °F

Location of SopronLocation

Historic Weather in Sopron — Graph

°F

Sopron temperature yesterday

Maximum temperature yesterday: 85 °F (at 4:00 PM)
Minimum temperature yesterday: 59 °F (at 3:00 AM)
Average temperature yesterday: 72 °F

Past Weeks' High & Low Weather Summary

 TemperatureHumidityPressure
High95 °F (Aug 13, 4:00 PM)95% (Aug 16, 3:00 AM)30.22 "Hg (Aug 16, 3:00 AM)
Low53 °F (Aug 26, 7:00 AM)20% (Aug 13, 6:00 PM)29.67 "Hg (Aug 15, 6:00 PM)
Average70 °F66%29.94 "Hg
* Reported Aug 13 10:00 AM — Aug 28 10:00 AM, Sopron, Weather by CustomWeather, © 2015

Note: Actual official high and low records may vary slightly from our data, if they occured in-between our weather recording intervals... More about our weather records

Advertising

Sopron weather history for previous 24 hours

 ConditionsComfort  
Time TempWeatherWind HumidityBarometerVisibility
10:00 AM
Fri, Aug 28
72 °FMild.2 mph78%30.02 "HgN/A
9:00 AM69 °FMild.1 mph81%30.00 "HgN/A
8:00 AM64 °FFog.1 mph92%29.98 "Hg2 mi
7:00 AM63 °FSunny.2 mph95%29.97 "Hg5 mi
5:00 AM63 °FMild.2 mph94%29.93 "HgN/A
4:00 AM64 °FMild.2 mph93%29.93 "HgN/A
3:00 AM66 °FMild.3 mph92%29.92 "HgN/A
2:00 AM67 °FClear.3 mph89%29.92 "Hg5 mi
10:00 PM
Thu, Aug 27
71 °FMild.2 mph80%29.96 "HgN/A
9:00 PM73 °FMild.2 mph76%29.96 "HgN/A
8:00 PM75 °FPassing clouds.3 mph71%29.95 "Hg6 mi
7:00 PM79 °FScattered clouds.6 mph62%29.94 "Hg6 mi
6:00 PM82 °FWarm.7 mph56%29.94 "HgN/A
5:00 PM84 °FPassing clouds.7 mph50%29.95 "Hg6 mi
4:00 PM85 °FWarm.7 mph45%29.94 "HgN/A
3:00 PM84 °FWarm.6 mph47%29.96 "HgN/A
2:00 PM83 °FScattered clouds.5 mph47%29.98 "Hg16 mi
1:00 PM81 °FWarm.5 mph49%29.99 "HgN/A
12:00 PM80 °FWarm.3 mph52%30.00 "HgN/A
11:00 AM75 °FSunny.3 mph62%30.01 "Hg16 mi
Weather by CustomWeather, © 2015

See weather overviewHow to use our weather pages